Temperature
29 30 31 30 31 31 30 30 30 29 29 29 29 28 27 27 26 26 25 25 24 23 22 22 22 22 22 21 21 21 20 20 19 19 19 19 18 18 18 18 18 18 18 18
28 30 30 30 31 31 31 31 30 30 29 29 29 27 27 26 26 25 25 24 23 23 22 22 21 21 21 21 21 20 20 20 19 19 19 18 18 18 18 18 18 18 18 18
27 29 29 29 30 30 30 31 30 29 29 29 28 27 27 26 25 25 24 23 23 22 22 21 21 20 20 20 20 20 19 19 19 18 18 18 18 18 18 18 18 18 18 18
27 27 26 29 31 31 30 30 30 29 29 28 27 26 25 25 25 24 23 22 22 22 21 21 20 20 20 19 19 19 19 19 18 18 18 18 17 18 18 18 17 17 17 17
26 26 27 29 29 29 29 28 29 28 28 28 27 26 25 24 23 23 22 22 21 21 21 20 20 19 19 19 19 19 18 18 18 18 18 17 17 17 17 17 17 17 17 17
26 25 25 27 28 28 28 27 27 27 27 26 26 25 24 23 22 22 21 21 21 20 20 19 19 19 19 18 18 18 18 18 18 17 17 17 17 17 17 17 17 17 17 17
25 25 26 27 28 28 26 24 26 26 25 25 24 24 23 22 21 21 20 20 20 19 19 19 18 18 18 18 17 17 17 17 17 17 17 17 17 17 17 16 16 16 16 16
25 24 24 25 26 25 24 24 24 24 24 23 23 22 22 21 21 20 20 19 19 19 18 18 18 17 17 17 17 17 17 17 17 16 16 16 16 16 16 16 16 16 16 16
24 24 23 24 24 24 23 23 23 23 23 22 22 22 21 20 20 19 19 19 18 18 18 17 17 17 17 16 16 16 16 16 16 16 16 16 16 16 16 16 15 15 15 15
23 23 24 23 23 22 22 22 22 22 22 21 21 21 20 20 19 19 18 18 18 17 17 17 17 16 16 16 16 16 16 16 16 16 16 16 15 15 15 15 15 15 15 15
23 23 22 22 22 21 21 21 21 21 21 20 20 20 19 19 18 18 18 17 17 17 16 16 16 16 16 16 15 15 15 15 15 15 15 15 15 15 15 15 15 15 15 15
22 22 21 21 20 20 20 20 20 20 19 19 19 19 19 18 18 17 17 17 16 16 16 16 15 15 15 15 15 15 14 14 15 15 15 15 15 15 15 15 15 15 15 15
21 20 20 20 20 19 19 19 19 19 18 18 18 18 18 17 17 17 16 16 16 15 15 15 15 15 15 14 14 14 14 14 14 14 15 15 15 15 15 15 15 15 15 14
19 19 19 19 19 18 18 18 18 18 18 17 17 17 17 16 16 16 15 15 15 15 15 14 14 14 14 14 14 13 13 13 14 14 14 14 14 14 14 14 14 14 14 14
18 18 18 18 18 18 17 17 17 17 17 17 16 16 16 16 15 15 15 15 14 14 14 14 13 13 13 13 13 13 13 13 13 13 13 14 14 14 14 14 14 14 14 13
17 18 17 17 17 17 17 17 17 16 16 16 16 15 15 15 15 14 14 14 14 13 13 13 13 13 13 13 13 13 13 13 13 13 13 13 13 13 13 13 13 13 13 13
17 17 17 17 16 16 16 16 16 16 15 15 15 15 14 14 14 13 13 13 13 13 13 12 12 12 12 12 12 12 12 12 13 12 12 13 13 13 13 13 13 13 13 12
16 16 16 16 15 15 15 15 15 15 15 14 14 14 14 13 13 13 12 12 12 12 12 12 12 12 12 12 12 12 12 12 12 12 12 12 12 12 12 12 12 12 12 12
15 15 15 15 15 15 15 14 14 14 14 14 13 13 13 13 12 12 12 12 12 11 11 11 11 11 11 11 11 11 11 12 12 12 12 12 12 12 12 12 12 12 12 12
15 15 15 15 14 14 14 14 13 13 13 13 13 12 12 12 12 12 11 11 11 11 11 11 11 11 11 11 11 11 11 11 11 11 12 12 11 11 11 11 11 11 11 11
14 14 14 14 14 14 13 13 13 13 13 12 12 12 12 11 11 11 11 11 11 11 11 11 10 10 10 10 11 11 11 11 11 11 11 11 11 11 11 11 11 11 11 11
14 14 13 13 13 13 13 13 12 12 12 12 12 11 11 11 11 11 11 10 10 10 10 10 10 10 10 10 10 10 11 11 11 11 11 11 11 11 11 11 11 11 10 10
13 13 13 13 13 12 12 12 12 12 12 11 11 11 11 11 11 10 10 10 10 10 10 10 10 10 10 10 10 10 10 10 10 10 10 10 10 10 10 10 10 10 10 10
13 13 13 12 12 12 12 12 12 12 12 11 11 11 11 11 10 10 10 10 10 10 9 9 9 9 9 9 10 10 10 10 10 10 10 10 10 10 10 10 9 9 9 9
12 12 12 12 12 12 12 12 12 12 12 11 11 11 11 10 10 10 10 10 9 9 9 9 9 9 9 9 9 9 9 9 9 9 9 9 9 9 9 9 9 9 9 9
12 12 12 12 12 12 12 12 12 12 12 11 11 11 11 10 10 10 10 9 9 9 9 9 9 9 9 9 9 9 9 9 9 9 9 8 8 8 8 8 8 8 8 8
12 12 12 12 12 12 12 12 12 12 11 11 11 11 10 10 10 10 9 9 9 9 9 9 8 8 8 8 8 8 8 8 8 8 8 8 8 8 8 8 8 8 8 8
Wind_Speed
14 14 12 12 11 12 12 11 11 8 4 1 3 3 5 4 4 5 4 3 3 3 2 2 2 1 1 0 2 2 4 6 6 5 5 5 5 6 6 7 8 7 7 7
14 15 13 14 14 14 14 12 12 9 5 1 3 4 4 3 3 4 3 3 3 3 3 2 2 1 1 1 2 2 2 3 4 4 4 4 4 4 5 5 6 6 7 7
14 14 14 15 13 12 11 9 8 6 3 0 3 3 3 3 2 3 2 2 2 3 3 2 1 1 1 0 1 3 2 2 2 3 3 3 4 3 3 4 4 5 6 6
13 14 16 12 8 8 7 5 3 2 2 2 3 4 3 2 2 2 2 2 3 2 2 2 2 1 1 0 1 2 2 2 2 3 3 3 3 3 3 3 3 4 5 5
12 15 15 11 7 7 6 5 3 2 2 2 3 3 4 5 5 5 3 3 3 3 3 2 2 1 1 1 1 2 2 2 2 2 2 2 3 4 4 3 3 4 5 6
12 14 14 8 6 6 5 5 4 3 2 2 1 1 4 7 6 6 5 5 4 4 4 3 3 3 2 2 2 2 2 2 2 1 2 3 4 3 3 3 4 4 4 5
14 15 10 6 4 4 6 3 5 4 3 3 3 4 4 4 4 4 4 4 4 4 4 3 3 3 3 3 3 3 2 2 2 2 3 5 4 3 3 4 4 4 4 5
11 13 8 6 4 3 4 5 5 4 4 4 4 3 2 2 3 3 3 3 3 3 3 3 3 3 4 4 3 3 3 3 3 3 5 5 3 3 4 4 5 5 5 5
5 3 3 5 5 5 5 5 4 4 4 3 2 2 2 2 2 2 2 3 3 3 3 3 3 3 4 4 3 4 4 4 4 5 5 4 4 5 5 5 5 5 4 5
4 3 1 3 4 5 6 6 6 5 4 3 3 3 3 3 2 2 2 3 3 3 4 4 4 5 5 5 3 4 5 4 4 5 6 5 5 5 5 5 5 4 4 3
5 2 2 2 4 4 5 5 6 6 5 4 4 5 4 3 2 3 3 3 3 3 3 4 4 5 6 5 4 5 5 5 6 6 6 5 5 5 5 4 4 4 4 3
4 2 3 2 2 4 4 4 5 6 6 5 6 6 5 4 3 3 3 3 3 4 5 5 5 5 6 6 5 6 6 6 7 7 5 5 5 4 4 5 5 6 5 4
3 4 4 4 4 4 5 5 5 5 6 7 6 6 5 4 3 3 3 4 5 5 5 5 5 6 6 6 6 6 7 7 7 7 6 6 5 4 4 3 3 3 4 4
3 3 4 5 5 6 6 6 6 7 6 6 5 6 5 5 5 5 5 6 6 6 6 6 6 6 6 6 5 6 7 8 8 7 6 6 5 5 4 4 4 3 3 4
3 4 5 5 5 6 7 7 7 6 6 6 6 6 6 6 6 6 6 6 6 7 7 7 7 7 6 7 7 7 8 7 6 6 6 6 5 5 4 5 4 3 2 2
5 5 5 5 6 6 6 7 6 6 6 6 6 6 6 6 7 7 7 7 7 8 7 6 7 8 7 7 8 7 6 7 7 6 7 6 5 5 5 4 4 3 2 2
6 5 5 5 5 5 6 6 6 6 6 6 6 7 7 7 7 7 8 8 7 7 6 6 7 7 7 7 8 7 7 6 6 5 5 6 5 5 5 4 4 3 2 3
5 5 4 4 5 5 6 6 6 6 6 7 7 7 7 7 8 8 8 9 8 7 6 6 6 6 7 7 6 7 6 4 4 5 5 5 5 5 4 4 4 3 1 2
3 4 4 4 5 5 5 5 6 6 7 7 7 7 7 7 7 7 8 8 7 7 6 6 7 7 7 7 7 5 6 6 5 5 4 4 5 5 4 4 4 3 2 2
4 4 5 5 4 4 4 4 5 6 6 7 7 7 6 6 6 7 7 6 4 5 5 6 6 7 7 6 7 6 6 5 5 5 4 4 5 5 4 4 3 3 2 1
3 4 4 4 4 4 4 5 5 6 6 6 6 6 6 6 6 6 5 5 4 5 6 6 5 5 5 6 7 6 5 4 4 4 4 4 4 4 4 3 3 2 2 1
3 3 3 4 4 4 4 5 5 6 6 5 6 5 5 6 6 5 4 4 4 5 5 5 4 5 7 8 6 6 4 4 4 4 4 4 3 4 4 3 3 3 2 2
3 3 3 3 3 3 4 5 5 5 4 4 4 4 5 5 5 4 4 4 4 5 5 4 5 7 9 7 6 5 4 4 4 4 4 3 3 3 3 3 2 2 1 1
2 2 2 3 4 4 4 5 4 3 3 3 3 3 3 3 3 3 4 3 4 4 4 3 3 6 7 6 5 5 4 4 4 4 4 3 2 2 2 2 2 2 2 2
2 2 2 3 3 4 4 4 3 3 3 2 3 3 3 3 3 4 4 5 4 3 4 3 3 5 5 5 5 4 3 3 3 3 4 4 3 2 2 2 2 2 1 1
1 1 1 2 2 3 3 3 3 3 3 3 3 3 3 3 3 3 3 4 5 5 4 4 4 4 4 5 4 4 3 3 2 3 3 3 4 4 3 2 2 1 1 1
1 2 2 2 2 3 3 3 3 3 4 4 4 4 4 3 3 4 4 4 4 4 4 4 5 5 5 5 5 4 4 4 3 3 2 2 2 2 3 3 2 2 2 1
Wind_Direction
267 272 271 265 266 264 264 272 276 273 261 255 138 114 115 126 120 108 101 92 79 88 91 85 73 57 27 301 155 180 177 190 198 203 213 223 229 238 232 226 231 230 231 231
269 267 268 265 257 260 262 261 260 265 257 222 98 111 114 121 127 108 91 77 63 52 64 70 74 71 53 349 122 150 196 196 189 196 205 222 232 242 246 238 237 232 229 229
270 272 273 264 261 262 264 266 275 273 275 61 94 91 112 123 136 115 81 37 54 49 45 50 60 54 43 284 156 155 172 183 191 205 212 222 232 233 241 248 245 240 235 229
267 271 265 270 272 273 274 273 277 293 0 65 99 90 78 69 58 93 84 55 23 28 35 30 31 55 16 260 188 170 188 198 199 212 230 238 237 249 246 246 252 248 244 237
261 263 259 263 274 278 272 281 331 332 8 46 88 106 88 67 57 63 62 46 27 3 359 13 11 8 305 284 247 212 218 224 228 216 221 232 236 251 251 241 245 251 245 242
254 262 265 282 310 319 280 260 351 27 30 17 45 266 80 63 55 47 41 32 18 4 6 14 2 347 321 293 286 256 242 235 232 218 224 234 238 246 251 254 250 258 259 247
251 258 264 305 317 291 266 310 2 27 37 34 32 36 61 58 52 45 42 28 22 12 7 7 357 342 319 307 296 298 280 265 252 247 248 241 236 237 245 247 255 257 261 252
251 256 268 7 16 7 28 28 21 18 34 51 64 63 64 46 35 24 19 15 6 6 4 5 352 331 315 303 305 304 294 280 270 260 262 261 247 244 246 247 250 249 250 251
270 272 42 36 41 38 33 21 16 17 32 35 14 10 21 23 6 351 349 354 347 347 349 348 346 326 303 302 303 297 288 284 280 272 261 261 255 248 247 246 249 251 246 248
282 267 357 32 36 24 19 15 359 357 3 353 334 328 334 337 337 334 334 335 332 329 323 330 334 328 313 302 286 282 283 283 272 264 261 253 244 247 244 243 244 251 257 260
266 275 320 5 20 12 359 345 332 335 335 332 326 311 309 308 316 313 308 308 307 304 305 306 314 313 309 311 306 293 283 278 274 268 262 255 247 247 248 256 251 243 255 257
281 307 298 304 339 336 324 315 322 323 323 320 310 303 302 304 312 309 310 313 307 299 295 298 304 305 310 312 304 292 282 279 279 276 270 265 252 246 230 231 226 220 230 240
351 360 345 323 307 305 301 303 306 307 306 303 303 305 305 304 307 308 305 300 296 294 293 293 295 297 302 298 294 289 284 283 283 285 284 277 265 249 248 234 216 214 224 216
2 344 314 306 301 303 302 303 302 299 297 299 306 305 303 304 302 297 293 293 294 295 296 296 295 294 298 294 283 277 279 281 280 279 280 284 284 274 264 265 248 234 212 196
316 297 287 293 296 293 293 292 291 293 299 303 303 304 305 306 305 302 300 298 298 294 295 299 302 305 313 306 293 283 281 281 284 289 288 287 287 289 282 272 266 244 172 164
288 285 284 280 280 284 291 297 298 297 299 303 303 305 304 302 301 301 303 303 297 293 298 302 301 302 302 300 295 290 281 276 277 284 287 288 287 282 278 269 265 256 209 182
276 273 278 283 295 301 300 300 300 301 302 302 305 307 305 303 302 301 302 301 298 295 295 295 296 299 299 298 294 289 287 280 270 281 285 286 283 279 277 265 262 261 239 177
266 273 281 290 296 299 306 313 315 316 316 313 312 308 306 303 302 303 303 302 297 296 297 299 304 305 303 299 296 292 288 283 282 285 290 294 291 284 283 279 272 263 229 181
289 291 295 293 296 296 301 312 320 323 326 322 311 306 303 301 300 299 299 297 297 298 304 309 303 297 297 301 298 286 285 284 281 279 278 282 282 283 284 281 274 262 239 205
288 296 304 302 300 305 311 315 318 319 319 316 312 308 306 309 312 309 306 301 304 309 317 320 312 306 302 303 298 287 286 285 280 277 274 273 279 282 280 280 284 276 253 219
292 303 308 310 317 324 320 314 314 315 313 312 313 310 312 315 318 318 315 312 328 337 326 312 305 308 313 315 296 285 284 284 285 288 288 288 288 288 284 278 269 260 258 254
300 304 311 323 331 332 324 318 315 309 313 321 326 326 324 324 324 331 340 333 331 338 321 315 327 340 335 315 295 292 294 294 295 296 295 291 286 283 278 270 265 260 245 221
296 301 306 314 318 317 317 315 317 321 329 344 343 336 329 329 330 332 329 335 338 337 326 333 342 338 324 309 304 308 312 311 302 295 291 283 274 271 273 276 270 265 255 244
298 305 312 323 327 324 317 316 320 326 330 331 316 313 321 329 330 334 340 350 351 341 336 348 336 319 307 304 304 306 312 325 327 323 321 318 315 318 319 301 281 265 250 257
314 328 332 326 319 313 315 316 315 321 328 331 341 355 344 344 344 346 348 353 3 348 338 344 319 310 311 316 322 330 332 335 328 329 336 343 339 338 333 329 328 305 286 283
299 290 294 293 307 313 309 307 311 325 330 335 344 345 338 352 356 351 353 353 359 354 348 345 342 326 331 334 338 344 343 340 333 333 343 342 342 337 326 320 326 324 333 342
279 287 289 300 309 307 311 322 329 328 329 335 337 339 339 351 357 356 355 349 350 348 349 351 353 354 353 350 351 357 0 354 352 359 348 339 333 319 324 334 342 350 349 347
Height
1476 1471 1469 1471 1471 1470 1474 1476 1484 1483 1483 1481 1481 1484 1488 1491 1492 1495 1497 1498 1500 1501 1502 1503 1504 1505 1506 1507 1508 1509 1510 1511 1512 1514 1515 1516 1517 1518 1518 1519 1520 1521 1522 1523
1480 1471 1469 1470 1469 1469 1470 1470 1473 1475 1480 1478 1481 1485 1489 1491 1493 1495 1497 1499 1500 1501 1502 1502 1503 1505 1505 1506 1506 1507 1508 1509 1510 1511 1511 1512 1513 1514 1514 1515 1516 1516 1517 1518
1486 1474 1473 1479 1468 1467 1468 1466 1470 1477 1478 1477 1481 1484 1487 1491 1493 1495 1497 1499 1500 1502 1502 1502 1503 1503 1504 1505 1505 1506 1507 1507 1508 1508 1508 1508 1509 1510 1510 1510 1511 1511 1512 1512
1484 1484 1496 1474 1460 1462 1466 1466 1468 1472 1475 1478 1482 1486 1489 1491 1493 1495 1497 1499 1500 1502 1502 1502 1502 1503 1503 1503 1503 1504 1504 1505 1505 1505 1505 1505 1506 1506 1506 1506 1506 1506 1506 1507
1486 1487 1482 1470 1464 1465 1469 1472 1471 1473 1477 1480 1483 1486 1490 1492 1494 1496 1498 1499 1500 1501 1501 1501 1501 1501 1501 1501 1501 1501 1501 1502 1502 1502 1502 1502 1502 1502 1502 1502 1502 1502 1503 1503
1484 1490 1491 1478 1468 1467 1471 1479 1475 1477 1480 1482 1484 1488 1492 1494 1495 1497 1499 1499 1500 1501 1501 1500 1500 1499 1499 1499 1499 1499 1499 1499 1499 1499 1499 1498 1498 1498 1498 1498 1498 1498 1499 1499
1484 1486 1479 1473 1469 1471 1484 1488 1481 1481 1483 1485 1487 1490 1494 1495 1497 1498 1499 1499 1500 1500 1500 1499 1498 1498 1497 1497 1497 1496 1496 1496 1495 1495 1495 1495 1495 1494 1494 1494 1494 1494 1494 1494
1481 1487 1488 1476 1474 1480 1485 1483 1484 1484 1486 1488 1490 1492 1494 1496 1497 1498 1498 1499 1499 1499 1498 1498 1497 1496 1495 1495 1495 1494 1493 1493 1492 1492 1492 1492 1491 1491 1491 1491 1490 1490 1490 1490
1478 1484 1481 1480 1481 1484 1485 1486 1486 1487 1488 1489 1491 1492 1494 1495 1496 1497 1497 1498 1498 1497 1497 1497 1496 1495 1494 1493 1492 1491 1490 1489 1489 1488 1488 1488 1488 1488 1488 1488 1487 1487 1487 1487
1478 1479 1480 1482 1484 1486 1487 1488 1489 1489 1489 1490 1491 1493 1494 1494 1495 1496 1496 1496 1496 1496 1495 1494 1494 1493 1492 1490 1489 1488 1487 1486 1485 1485 1484 1484 1484 1484 1484 1484 1483 1483 1483 1482
1478 1480 1481 1483 1486 1488 1489 1490 1490 1490 1490 1491 1492 1492 1493 1493 1494 1494 1494 1494 1494 1494 1493 1492 1491 1490 1489 1488 1486 1485 1483 1483 1482 1481 1480 1480 1479 1479 1479 1478 1479 1479 1478 1478
1479 1481 1483 1486 1487 1489 1489 1490 1490 1490 1490 1491 1491 1491 1491 1492 1492 1492 1492 1492 1491 1491 1490 1489 1488 1487 1485 1484 1483 1481 1480 1479 1478 1477 1476 1475 1475 1474 1473 1474 1474 1474 1474 1474
1481 1483 1484 1485 1487 1488 1489 1489 1490 1490 1490 1490 1490 1490 1489 1489 1489 1489 1489 1489 1488 1488 1486 1485 1484 1482 1481 1480 1479 1477 1476 1475 1474 1473 1473 1471 1471 1470 1469 1468 1468 1467 1468 1469
1483 1484 1485 1486 1487 1487 1488 1488 1488 1488 1488 1488 1488 1488 1487 1487 1487 1487 1487 1486 1485 1484 1483 1481 1480 1478 1477 1476 1474 1473 1472 1471 1469 1468 1468 1467 1467 1466 1465 1464 1464 1463 1463 1463
1483 1484 1484 1485 1485 1486 1486 1486 1486 1486 1486 1486 1486 1485 1485 1485 1484 1484 1483 1482 1481 1480 1479 1477 1475 1474 1473 1471 1470 1468 1467 1466 1465 1464 1464 1463 1463 1462 1461 1460 1459 1459 1458 1458
1482 1482 1483 1483 1484 1484 1484 1484 1484 1483 1484 1483 1483 1483 1483 1482 1481 1481 1480 1479 1477 1476 1474 1472 1470 1469 1468 1467 1465 1464 1462 1461 1461 1460 1460 1459 1459 1458 1457 1456 1455 1455 1454 1454
1481 1481 1481 1482 1482 1482 1483 1482 1482 1481 1481 1481 1481 1480 1480 1479 1478 1477 1476 1474 1473 1471 1469 1468 1466 1464 1463 1461 1460 1459 1458 1457 1456 1456 1456 1455 1455 1454 1453 1453 1452 1451 1451 1450
1480 1480 1481 1481 1481 1481 1481 1481 1480 1480 1479 1479 1478 1477 1476 1475 1474 1472 1471 1470 1468 1466 1465 1463 1462 1460 1458 1457 1456 1455 1454 1453 1452 1452 1451 1451 1450 1450 1449 1449 1448 1448 1447 1447
1478 1479 1479 1479 1479 1479 1479 1479 1479 1478 1477 1476 1475 1474 1473 1471 1470 1468 1467 1465 1464 1462 1461 1459 1458 1456 1455 1453 1452 1451 1450 1449 1449 1448 1447 1447 1447 1446 1445 1445 1445 1444 1444 1444
1477 1478 1477 1477 1477 1477 1477 1477 1477 1476 1475 1474 1472 1471 1469 1468 1467 1465 1463 1462 1460 1459 1457 1456 1454 1453 1451 1450 1449 1448 1447 1446 1445 1445 1444 1443 1444 1443 1442 1442 1440 1440 1440 1440
1476 1476 1476 1476 1476 1476 1476 1475 1475 1474 1473 1471 1470 1468 1467 1465 1464 1462 1460 1459 1457 1456 1454 1452 1451 1449 1448 1447 1446 1445 1444 1443 1442 1442 1441 1440 1440 1439 1439 1438 1438 1438 1437 1438
1475 1475 1475 1475 1475 1474 1474 1474 1473 1472 1470 1469 1468 1466 1465 1463 1462 1460 1458 1457 1455 1453 1451 1450 1449 1447 1445 1444 1443 1442 1441 1440 1439 1439 1438 1437 1437 1436 1436 1436 1436 1436 1436 1436
1475 1475 1474 1474 1474 1473 1473 1472 1471 1470 1468 1467 1466 1465 1463 1462 1460 1458 1456 1455 1453 1451 1450 1448 1446 1445 1443 1442 1441 1440 1439 1437 1437 1436 1435 1434 1434 1434 1434 1434 1433 1433 1433 1434
1474 1474 1474 1473 1473 1472 1472 1471 1470 1468 1467 1466 1465 1464 1462 1461 1459 1457 1455 1453 1451 1450 1448 1446 1445 1443 1441 1440 1439 1438 1437 1435 1434 1433 1433 1432 1432 1432 1431 1431 1431 1431 1431 1432
1473 1473 1473 1472 1472 1471 1471 1470 1469 1468 1467 1465 1464 1463 1462 1460 1458 1456 1454 1452 1450 1449 1447 1445 1444 1442 1440 1438 1437 1436 1435 1434 1433 1432 1432 1431 1430 1429 1429 1429 1429 1429 1429 1429
1473 1473 1472 1472 1472 1471 1470 1469 1468 1467 1466 1464 1463 1462 1461 1459 1457 1456 1454 1452 1450 1448 1446 1445 1443 1441 1439 1438 1437 1435 1434 1433 1432 1431 1430 1429 1428 1428 1428 1428 1427 1427 1427 1427
1472 1472 1471 1471 1470 1470 1469 1468 1467 1466 1465 1464 1462 1461 1460 1459 1457 1455 1454 1452 1450 1448 1446 1444 1443 1441 1439 1438 1436 1435 1433 1432 1431 1430 1429 1428 1427 1427 1427 1426 1426 1426 1425 1425